This is the latest recevied weather packets stored in our database for station/object VE3DVC. If no packets are shown the sender has not sent any weather packets the latest 10 day(s).
| Time | Temp. | Humidity | Pressure | Rain* | Wind** | Luminosity | Snow |
|---|---|---|---|---|---|---|---|
| 1777974207 | 13.89° C | 87% | 1000.5 hPa | 0 mm | - | - | - |
| 1777973486 | 13.89° C | 87% | 1000.5 hPa | 0.25 mm | - | - | - |
| 1777972131 | 13.33° C | 88% | 1000.1 hPa | 0.25 mm | - | - | - |
| 1777971411 | 13.89° C | 88% | 1000.1 hPa | 0.25 mm | - | - | - |
| 1777970379 | 13.89° C | 88% | 1000.1 hPa | 0.51 mm | - | - | - |
| 1777969465 | 14.44° C | 88% | 999.9 hPa | 0.25 mm | - | - | - |
| 1777968745 | 14.44° C | 90% | 999.9 hPa | 0.51 mm | - | - | - |
| 1777968026 | 14.44° C | 90% | 999.9 hPa | 0.51 mm | - | - | - |
| 1777967305 | 13.89° C | 91% | 1000.1 hPa | 0.51 mm | - | - | - |
| 1777966585 | 13.89° C | 91% | 1000.2 hPa | 0.51 mm | - | - | - |
| 1777965865 | 13.33° C | 91% | 1000.2 hPa | 0.51 mm | - | - | - |
| 1777964680 | 13.33° C | 91% | 1000.1 hPa | 0.51 mm | - | - | - |
| 1777963961 | 13.33° C | 91% | 1000.3 hPa | 0.51 mm | - | - | - |
| 1777963247 | 12.78° C | 91% | 1000.7 hPa | 0.25 mm | - | - | - |
| 1777962032 | 12.78° C | 91% | 1000.9 hPa | 0.25 mm | - | - | - |
| 1777961312 | 12.78° C | 91% | 1001.1 hPa | 0.51 mm | - | - | - |
| 1777960592 | 13.33° C | 91% | 1001.4 hPa | 0.25 mm | - | - | - |
| 1777959872 | 13.33° C | 91% | 1001.5 hPa | 0.51 mm | - | - | - |
| 1777959153 | 13.33° C | 91% | 1001.5 hPa | 0.25 mm | - | - | - |
| 1777958432 | 13.33° C | 91% | 1001.5 hPa | 0.51 mm | - | - | - |
| 1777957511 | 13.33° C | 91% | 1001.8 hPa | 0.51 mm | - | - | - |
| 1777956791 | 13.89° C | 91% | 1001.9 hPa | 0.76 mm | - | - | - |
| 1777956072 | 13.89° C | 91% | 1002.1 hPa | 0.51 mm | - | - | - |
| 1777955351 | 13.89° C | 91% | 1002.4 hPa | 0.51 mm | - | - | - |
| 1777953609 | 13.89° C | 88% | 1003 hPa | 0.25 mm | - | - | - |
* Rain latest hour (hover to see other rain measurements)
** Current wind speed in m/s (hover to see current wind gust speed)